Flag Weather past 2 weeks in Lübbecke, North Rhine-Westphalia, Germany

Now
41 °F

Broken clouds.


Feels Like: 36 °F
Forecast: 33 / 40 °F
Wind: 7 mph from Southeast

Location: Bueckeburg

Current Time: Nov 27, 2014 at 1:25:21 PM

Latest Report: Nov 27, 2014 at 12:20 PM


Visibility: N/A

Pressure: 29.86 "Hg

Humidity: 70%

Dew point: 32 °F

Location of LübbeckeLocation

Historic Weather in Lübbecke — Graph

°F

Lübbecke temperature yesterday

Maximum temperature yesterday: 41 °F (at 11:20 AM)
Minimum temperature yesterday: 39 °F (at 12:20 AM)
Average temperature yesterday: 40 °F

Past Weeks' High & Low Weather Summary

 TemperatureHumidityPressure
High57 °F (Nov 23, 1:20 PM)100% (Nov 12, 5:20 PM)30.36 "Hg (Nov 12, 5:20 PM)
Low36 °F (Nov 21, 7:20 AM)59% (Nov 23, 2:20 PM)29.50 "Hg (Nov 16, 11:20 AM)
Average46 °F85%29.99 "Hg
* Reported Nov 12 12:20 PM — Nov 27 12:20 PM, Lübbecke, Weather by CustomWeather, © 2014

Note: Actual official high and low records may vary slightly from our data, if they occured in-between our weather recording intervals... More about our weather records

Advertising

Lübbecke weather history for previous 24 hours

 ConditionsComfort  
Time TempWeatherWind HumidityBarometerVisibility
12:20 PM
Nov 27
41 °FBroken clouds.7 mph70%29.86 "HgN/A
11:20 AM41 °FScattered clouds.10 mph70%29.86 "HgN/A
10:20 AM39 °FScattered clouds.8 mph75%29.89 "HgN/A
9:20 AM39 °FScattered clouds.6 mph75%29.89 "HgN/A
8:20 AM39 °FPartly sunny.10 mph75%29.89 "HgN/A
7:20 AM37 °FPassing clouds.8 mph81%29.89 "HgN/A
6:20 AM37 °FPassing clouds.3 mph81%29.89 "HgN/A
5:20 AM37 °FPassing clouds.6 mph81%29.89 "HgN/A
4:20 AM37 °FPartly cloudy.5 mph81%29.92 "HgN/A
3:20 AM39 °FPassing clouds.3 mph75%29.92 "HgN/A
2:20 AM37 °FPassing clouds.2 mph81%29.92 "HgN/A
1:20 AM39 °FPassing clouds.6 mph75%29.95 "HgN/A
12:20 AM39 °FPassing clouds.6 mph75%29.98 "HgN/A
11:20 PM
Nov 26
39 °FPassing clouds.9 mph75%29.98 "HgN/A
10:20 PM39 °FPartly cloudy.7 mph75%30.01 "HgN/A
10:00 PM41 °FPassing clouds.8 mph70%30.01 "HgN/A
9:20 PM41 °FPassing clouds.8 mph70%30.01 "HgN/A
8:20 PM41 °FPassing clouds.7 mph70%30.01 "HgN/A
7:20 PM41 °FPartly cloudy.10 mph70%30.01 "HgN/A
6:20 PM41 °FPassing clouds.7 mph76%30.01 "HgN/A
5:20 PM41 °FPassing clouds.6 mph76%30.01 "HgN/A
4:20 PM39 °FPassing clouds.8 mph81%30.04 "HgN/A
3:20 PM41 °FBroken clouds.9 mph76%30.04 "HgN/A
2:20 PM41 °FPartly sunny.8 mph76%30.07 "HgN/A
1:20 PM41 °FPartly sunny.9 mph76%30.07 "HgN/A
Weather by CustomWeather, © 2014

See weather overviewHow to use our weather pages